Lid_Strength_Index
3 3 3 3 3 2 2 1 1 1 1 1 1 1 1 1 1 1 0 -2 2 4 3 3 3 4 4 5 9 5 8 7 7 11 11 12 13 13 12 10 11 12 13 13 12 13 15 6 6 10 8 6 6 6
3 3 3 3 2 2 2 2 1 1 1 1 1 1 1 1 1 1 0 -1 -1 3 3 1 1 1 2 2 4 4 7 7 8 10 10 10 12 11 12 14 8 12 10 12 10 10 6 6 7 5 5 6 6 5
3 3 3 3 2 2 2 2 1 1 1 1 1 1 1 1 1 1 0 -1 0 3 4 3 4 1 -0 1 0 6 4 4 7 5 8 10 12 10 14 13 12 9 8 11 10 7 7 7 5 5 5 6 5 4
3 3 3 3 2 2 2 2 2 1 1 1 1 1 1 0 1 1 0 -1 1 3 6 4 0 2 -0 -0 1 1 2 2 3 5 7 9 11 8 11 11 12 11 11 11 10 8 9 8 7 7 7 5 5 4
3 3 3 3 2 2 2 2 2 2 2 1 1 1 1 0 1 1 -1 -1 -1 3 6 5 2 1 0 1 2 2 2 3 5 6 7 9 8 9 9 9 12 9 11 12 12 10 10 9 8 6 8 6 6 6
4 3 4 3 2 2 2 2 2 2 2 1 1 1 1 1 1 1 3 -1 -2 -0 5 7 2 3 1 1 2 3 2 3 4 4 6 6 5 8 11 12 9 8 7 8 10 8 8 8 8 8 7 7 6 6
3 3 4 3 2 2 2 2 2 3 2 2 2 2 1 1 1 3 4 1 2 -0 4 6 6 3 2 2 3 4 3 4 3 4 5 4 6 6 9 13 8 7 6 7 7 8 10 9 10 8 7 7 7 6
4 3 3 3 2 2 2 2 2 2 2 2 2 3 2 2 2 2 0 3 2 2 3 7 7 4 2 5 5 2 5 5 5 5 4 6 5 6 12 6 6 5 6 7 7 7 8 8 8 8 8 7 8 9
4 3 3 3 2 2 2 2 2 2 2 2 2 2 1 2 3 2 2 2 -1 2 6 5 8 9 2 4 4 4 4 8 3 5 6 6 10 13 8 6 5 5 5 5 5 6 7 8 8 8 9 9 10 9
4 4 4 3 2 2 2 2 2 2 1 2 1 2 5 2 2 2 1 4 4 4 4 7 4 7 3 5 6 6 5 7 9 7 4 8 8 5 5 4 4 4 3 3 5 5 6 8 8 8 8 8 10 10
4 4 4 3 2 2 2 2 2 2 1 0 2 4 1 2 1 3 6 7 6 8 6 6 5 6 3 7 7 6 6 7 11 8 7 7 9 6 4 4 3 3 3 3 3 3 3 4 6 7 8 8 8 9
4 4 4 2 2 2 2 2 2 1 -0 1 1 0 -0 3 5 7 7 6 7 8 5 5 4 4 4 3 6 6 8 7 12 5 8 12 7 4 4 4 3 3 3 3 3 3 3 3 3 4 6 8 7 8
4 4 4 2 2 2 2 2 2 2 1 -0 2 4 4 5 11 9 10 7 7 5 4 4 5 3 4 4 7 7 10 10 4 8 12 8 5 4 4 3 3 2 3 2 3 3 3 4 3 3 4 5 7 7
5 4 3 2 2 2 2 3 2 1 1 4 5 12 7 8 7 5 7 7 4 4 4 4 5 4 5 7 7 9 7 6 9 12 13 7 5 4 3 3 3 3 2 2 2 2 3 3 4 3 3 3 4 6
5 4 3 2 2 2 2 2 2 -0 2 5 4 11 7 5 4 4 4 4 4 4 5 6 5 6 7 8 7 7 9 11 10 12 8 5 4 3 4 3 3 3 2 2 2 2 2 3 3 4 3 3 3 4
4 4 0 2 2 1 2 1 1 -0 2 4 4 6 5 6 6 5 5 6 4 5 4 4 7 8 8 7 9 10 11 13 10 7 5 4 3 3 2 2 2 2 2 2 2 2 2 2 3 3 3 3 3 3
5 -1 2 2 2 2 2 -0 1 3 4 5 5 3 4 5 5 5 4 4 3 5 8 6 9 11 6 9 11 9 10 7 6 4 3 3 3 2 2 2 2 2 2 2 1 1 2 1 2 3 3 3 3 2
1 -0 2 3 2 1 -0 1 2 3 6 4 5 4 3 3 5 5 4 2 4 5 5 7 5 8 10 13 10 6 5 4 2 3 3 2 2 2 2 2 1 1 1 2 1 1 1 2 2 2 2 2 3 3
2 2 2 3 2 1 2 2 2 5 4 4 3 3 3 3 3 2 2 2 2 2 4 5 7 8 8 6 5 5 4 3 4 3 3 1 1 1 1 1 1 2 1 2 1 2 2 1 2 2 2 2 3 3
3 3 3 2 2 2 3 3 1 4 6 4 3 4 4 4 3 2 3 2 3 4 5 6 6 5 4 3 2 4 3 2 3 4 4 2 1 1 1 1 2 1 1 1 1 3 2 2 0 1 2 2 3 3
4 1 3 1 1 1 2 3 4 3 3 4 3 3 4 3 4 5 5 3 4 5 6 4 4 3 2 2 1 2 2 2 3 3 3 3 1 1 2 1 1 1 2 2 2 2 1 2 1 1 1 2 2 2
-0 3 -0 0 2 2 3 2 3 3 4 4 3 3 4 5 4 4 2 4 5 5 3 4 3 2 3 3 2 1 2 1 1 2 5 4 3 2 3 2 2 2 2 2 1 2 2 1 0 0 0 0 2 2
3 0 1 2 4 6 7 1 5 4 6 5 4 5 5 4 4 2 5 4 4 2 2 2 2 1 2 2 1 1 1 2 3 2 1 1 2 1 1 2 2 2 2 1 1 1 2 2 2 0 1 0 1 1
3 2 4 4 5 8 3 5 3 4 4 5 6 7 6 5 3 5 6 5 3 2 2 2 1 2 2 3 3 3 1 2 3 2 1 2 2 2 2 2 1 1 1 1 1 1 1 1 2 1 1 1 1 1
7 7 6 11 4 6 6 6 6 6 7 6 7 6 5 3 6 6 6 5 3 3 3 2 2 2 3 3 2 2 0 1 2 2 1 1 1 1 2 1 1 1 0 0 2 1 1 2 2 1 1 1 1 2
11 5 9 5 5 6 6 8 7 7 6 7 6 4 3 5 8 8 5 4 3 2 2 2 2 2 2 2 2 2 2 1 1 2 1 1 2 2 2 2 2 1 -1 0 1 1 1 2 1 1 1 1 3 1
9 6 4 2 4 3 5 4 4 5 7 7 5 6 5 8 8 5 2 2 2 1 1 1 2 3 3 3 2 2 2 2 2 2 2 1 1 1 2 3 3 1 1 0 0 0 1 1 1 1 1 1 1 1
4 4 6 5 5 3 6 6 7 7 6 4 4 7 7 7 6 3 2 1 1 1 1 2 2 2 3 3 3 3 2 2 2 2 2 2 1 1 1 2 2 5 1 1 1 1 0 1 1 1 1 1 1 0
5 3 4 6 5 5 5 6 6 4 3 4 6 6 5 3 2 2 1 2 1 1 2 2 2 1 2 3 3 3 3 3 4 4 5 4 4 3 2 2 2 1 2 2 6 4 2 1 1 1 2 2 2 1
5 3 5 6 6 7 5 3 4 3 2 2 3 3 3 3 1 1 2 2 2 1 2 2 2 2 3 3 5 5 4 3 3 4 5 5 4 3 3 3 2 2 2 2 3 2 5 3 3 1 2 1 2 1
2 3 5 5 5 4 3 2 1 2 2 3 2 3 4 3 4 2 2 2 2 1 2 2 3 3 3 4 4 5 5 4 3 3 3 3 3 3 3 2 2 2 2 2 3 3 3 3 3 3 3 4 4 4
3 4 5 6 6 3 2 3 3 4 4 4 4 3 3 3 6 4 2 2 3 2 5 2 3 4 3 4 4 4 7 3 3 3 3 3 3 3 2 2 2 2 2 3 3 3 4 3 3 3 4 4 4 4
4 4 4 4 4 5 4 4 5 5 4 4 4 4 4 4 6 3 2 2 2 1 2 2 2 3 3 3 4 4 5 4 6 8 8 9 9 7 4 3 3 2 3 3 3 4 4 5 4 4 4 4 4 4